User: anonymous   Login
Location: Daybis Observatory
(33.4273°N, 88.8061°W)
Time: 00:21:32
(UTC-06:00)
Language:

Coronas F rocket - Orbit

View from above orbital plane
View from above orbital plane
View from above satellite
View from above satellite

Ground track
Ground track

The orbit data is extracted from the following two-line orbital elements,

1 26874U 01032B   15029.55348984  .00020554  00000-0  25913-3 0  9120
2 26874 082.4696 105.0833 0011546 299.5950 060.4155 15.59370635756485
Epoch (UTC): 29 January 2015 13:17:01
Eccentricity: 0.0011546
inclination: 82.4696°
perigee height: 381 km
apogee height: 397 km
right ascension of ascending node: 105.0833°
argument of perigee: 299.5950°
revolutions per day: 15.59370635
mean anomaly at epoch: 60.4155°
orbit number at epoch: 75648

The dashed part of the orbit path shows where the satellite is in the earth's shadow,  

DLR